Location: Lawrence
(38.9720°N, 95.2350°W)
Time: 17:21:16
(UTC-05:00)

JAS-1B - Visible Passes

Search period start: 05 May 2015 00:00
Search period end: 15 May 2015 00:00
Orbit: 911 x 1744 km, 99.1° (Epoch: 04 May)

Date Brightness Start Highest point End Pass type
(mag) Time Alt. Az. Time Alt. Az. Time Alt. Az.
05 May 8.0 00:58:47 10° NNE 01:08:06 86° ESE 01:09:04 76° S visible
05 May 9.4 02:50:44 10° N 02:57:49 25° WNW 03:01:21 20° W visible
05 May 9.1 23:28:35 10° NE 23:35:59 27° E 23:36:21 27° E visible
06 May 8.1 01:17:52 10° N 01:27:10 77° WNW 01:28:36 67° SW visible
06 May 9.7 03:10:26 10° NNW 03:16:34 19° WNW 03:20:53 14° W visible
06 May 8.8 23:47:03 10° NNE 23:55:23 35° E 23:55:53 35° E visible
07 May 8.3 01:37:02 10° N 01:46:11 61° WNW 01:48:09 52° WSW visible
07 May 9.9 03:30:28 10° NNW 03:35:14 15° NW 03:39:34 10° W visible
08 May 8.5 00:05:43 10° NNE 00:14:41 46° E 00:15:25 46° ESE visible
08 May 8.7 01:56:17 10° N 02:05:08 48° WNW 02:07:41 40° WSW visible
08 May 10.0 03:51:33 10° NW 03:53:48 11° NW 03:55:22 10° WNW visible
08 May 9.8 22:39:53 10° ENE 22:41:26 11° E 22:42:40 11° E visible
09 May 8.2 00:24:33 10° NNE 00:33:55 60° E 00:34:56 58° ESE visible
09 May 9.0 02:15:37 10° N 02:24:02 38° WNW 02:27:13 31° W visible
09 May 9.6 22:55:59 10° NE 23:01:06 16° E 23:02:11 16° E visible
10 May 8.0 00:43:30 10° NNE 00:53:04 76° ESE 00:54:28 67° SSE visible
10 May 9.3 02:35:02 10° N 02:42:52 30° WNW 02:46:44 23° W visible
10 May 9.3 23:13:47 10° NE 23:20:40 23° E 23:21:43 22° E visible
11 May 8.1 01:02:32 10° NNE 01:12:11 87° WNW 01:13:59 66° SSW visible
11 May 9.6 02:54:37 10° N 03:01:38 23° WNW 03:06:15 16° W visible
11 May 9.0 23:32:05 10° NE 23:40:08 30° E 23:41:14 30° ESE visible
12 May 8.2 01:21:39 10° N 01:31:13 70° WNW 01:33:30 55° SW visible
12 May 9.8 03:14:24 10° NNW 03:20:20 18° NW 03:25:46 10° W visible
12 May 8.7 23:50:39 10° NNE 23:59:31 40° E 00:00:44 39° ESE visible
13 May 8.5 01:40:52 10° N 01:50:11 56° WNW 01:53:00 44° WSW visible
13 May 10.0 03:34:36 10° NNW 03:38:57 13° NW 03:42:43 10° WNW visible
14 May 8.4 00:09:25 10° NNE 00:18:49 52° E 00:20:15 49° ESE visible
14 May 8.8 02:00:09 10° N 02:09:06 44° WNW 02:12:31 34° WSW visible
14 May 9.7 22:42:01 10° ENE 22:45:37 13° E 22:47:29 13° E visible
